Home > Weather > Maastricht > Past weeks

Flag for Netherlands Past Weather in Maastricht, Netherlands — Yesterday and Last 2 Weeks

Now
64 °F

Overcast.


Feels Like: 64 °F
Forecast: 56 / 64 °F
Wind: 20 mph from Southwest

Location: Maastricht Airport Zuid Limburg

Current Time: Jul 1, 2016 at 10:01:41 AM

Latest Report: Jul 1, 2016 at 9:25 AM


Visibility: N/A

Pressure: 29.92 "Hg

Humidity: 83%

Dew Point: 59 °F

Location of MaastrichtLocation

Past Weather in Maastricht — Graph

°F

Maastricht Temperature Yesterday

Maximum temperature yesterday: 68 °F (at 12:55 PM)
Minimum temperature yesterday: 59 °F (at 3:25 AM)
Average temperature yesterday: 63 °F

High & Low Weather Summary for the Past Weeks

 TemperatureHumidityPressure
High90 °F (Jun 23, 6:25 PM)100% (Jun 16, 9:55 PM)30.27 "Hg (Jun 16, 9:55 PM)
Low52 °F (Jun 17, 12:55 AM)49% (Jun 23, 6:25 PM)29.59 "Hg (Jun 16, 8:25 AM)
Average62 °F83%30.00 "Hg
* Reported Jun 16 8:25 AM — Jul 1 8:55 AM, Maastricht, Weather by CustomWeather, © 2016

Note: Actual official high and low records may vary slightly from our data, if they occured in-between our weather recording intervals... More about our weather records

Advertising

Maastricht Weather History for the Previous 24 Hours

Scroll right to see more
 ConditionsComfort  
Time TempWeatherWind HumidityBarometerVisibility
8:55 AM
Fri, Jul 1
64 °FPartly sunny.18 mph88%29.92 "HgN/A
8:25 AM64 °FMostly cloudy.17 mph88%29.92 "HgN/A
7:55 AM64 °FScattered clouds.16 mph88%29.92 "HgN/A
7:25 AM64 °FPassing clouds.16 mph88%29.92 "HgN/A
6:55 AM63 °FClear.14 mph94%29.89 "HgN/A
6:25 AM63 °FPassing clouds.13 mph94%29.89 "HgN/A
5:55 AM63 °FOvercast.14 mph94%29.92 "HgN/A
5:25 AM63 °FPartly cloudy.12 mph94%29.92 "HgN/A
4:55 AM63 °FPassing clouds.12 mph94%29.92 "HgN/A
4:25 AM63 °FClear.10 mph94%29.92 "HgN/A
3:55 AM63 °FPassing clouds.9 mph94%29.92 "Hg5 mi
3:25 AM63 °FLight rain. Mostly cloudy.8 mph94%29.92 "HgN/A
2:55 AM63 °FPartly cloudy.13 mph94%29.92 "Hg2 mi
2:25 AM63 °FPassing clouds.12 mph94%29.92 "HgN/A
1:55 AM63 °FPartly cloudy.10 mph94%29.92 "HgN/A
1:25 AM63 °FPassing clouds.10 mph94%29.92 "HgN/A
12:55 AM63 °FPassing clouds.9 mph94%29.95 "HgN/A
12:25 AM63 °FPassing clouds.9 mph94%29.95 "HgN/A
11:55 PM
Thu, Jun 30
63 °FClear.8 mph94%29.95 "HgN/A
11:25 PM63 °FClear.10 mph94%29.95 "HgN/A
10:55 PM63 °FMild.9 mph94%29.95 "HgN/A
10:25 PM63 °FClear.9 mph94%29.92 "HgN/A
9:55 PM64 °FMostly cloudy.10 mph88%29.92 "HgN/A
9:25 PM64 °FOvercast.10 mph88%29.92 "HgN/A
8:55 PM64 °FScattered clouds.13 mph88%29.92 "HgN/A
8:25 PM64 °FScattered clouds.12 mph94%29.92 "HgN/A
7:55 PM64 °FLight rain. Broken clouds.10 mph94%29.92 "Hg4 mi
7:25 PM64 °FLight rain. Partly sunny.9 mph88%29.89 "HgN/A
6:55 PM66 °FLight rain. More clouds than sun.16 mph83%29.89 "HgN/A
6:25 PM66 °FBroken clouds.16 mph78%29.89 "HgN/A
5:55 PM68 °FMostly cloudy.14 mph73%29.89 "HgN/A
5:25 PM66 °FMostly cloudy.10 mph78%29.92 "HgN/A
4:55 PM68 °FPartly sunny.12 mph78%29.92 "HgN/A
4:25 PM63 °FDrizzle. Mostly cloudy.14 mph94%29.92 "Hg3 mi
3:55 PM66 °FPartly sunny.12 mph78%29.92 "HgN/A
3:25 PM68 °FMore clouds than sun.13 mph73%29.92 "HgN/A
2:55 PM66 °FMostly cloudy.15 mph73%29.92 "HgN/A
2:25 PM66 °FBroken clouds.17 mph73%29.92 "HgN/A
1:55 PM66 °FCloudy.18 mph73%29.92 "HgN/A
1:25 PM64 °FCloudy.20 mph73%29.92 "HgN/A
12:55 PM68 °FBroken clouds.16 mph69%29.92 "HgN/A
12:25 PM64 °FCloudy.15 mph78%29.92 "HgN/A
11:55 AM64 °FCloudy.17 mph78%29.89 "HgN/A
11:25 AM63 °FCloudy.15 mph83%29.92 "HgN/A
10:55 AM63 °FMostly cloudy.16 mph83%29.89 "HgN/A
10:25 AM63 °FOvercast.15 mph83%29.89 "HgN/A
Weather by CustomWeather, © 2016

See weather overviewHow to use our weather pages